Weather History for Minden, LA

Change the Weather History Date:

Friday, November 30, 2012

  Actual Average (KBAD) Record (KBAD)
Temperature  
Mean Temperature 56 °F -  
Max Temperature 70 °F 59 °F 75 °F (1998)
Min Temperature 42 °F 41 °F 26 °F (2013)
Degree Days  
Heating Degree Days 9    
Growing Degree Days 6 (Base 50)    
Moisture  
Dew Point 48 °F    
Average Humidity 70    
Maximum Humidity 85    
Minimum Humidity 54    
Precipitation  
Precipitation 0.00 in - - ()
Sea Level Pressure  
Sea Level Pressure 30.19 in    
Wind  
Wind Speed 4 mph ()    
Max Wind Speed 7 mph    
Max Gust Speed -    
Visibility 9.8 miles    
Events      
Averages and records for this station are not official NWS values.
T = Trace of Precipitation, MM = Missing Value Source: Averaged Metar Reports

Daily Weather History Graph

Daily Weather History Graph

Search for Another Location

Airport:

Trip Planner

Search our weather history database for the weather conditions in past years. The results will help you decide how hot, cold, wet, or windy it might be!

Date:

Astronomy

Nov. 30, 2012 Rise Set
Actual Time 6:56 AM CST 5:07 PM CST
Civil Twilight 6:30 AM CST 5:33 PM CST
Nautical Twilight 5:59 AM CST 6:04 PM CST
Astronomical Twilight 5:29 AM CST 6:34 PM CST
Moon 7:01 PM CST (11/30) 8:29 AM CST (11/30)
Length of Visible Light 11h 03m
Length of Day
10h 10m
Waning Gibbous, 96% of the Moon is Illuminated
Nov 30
Waning Gibbous
Dec 6
Last Quarter
Dec 13
New
Dec 19
First Quarter
Dec 28
Full

Hourly Weather History & Observations

Time (CST) Temp. Windchill Dew Point Humidity Pressure Visibility Wind Dir Wind Speed Gust Speed Precip Events Conditions
12:15 AM 47.7 °F - 33.6 °F 58% 30.22 in 10.0 mi SE 5.8 mph - N/A   Clear
12:35 AM 49.1 °F - 33.3 °F 54% 30.22 in 10.0 mi SSE 4.6 mph - N/A   Clear
12:55 AM 48.7 °F - 33.1 °F 55% 30.22 in 10.0 mi SSE 4.6 mph - N/A   Clear
1:15 AM 47.5 °F - 33.4 °F 58% 30.22 in 10.0 mi SSE 3.5 mph - N/A   Clear
1:35 AM 46.4 °F 44.3 °F 33.8 °F 62% 30.22 in 10.0 mi SE 4.6 mph - N/A   Clear
1:55 AM 46.4 °F 44.3 °F 33.8 °F 62% 30.22 in 10.0 mi SSE 4.6 mph - N/A   Clear
2:15 AM 46.2 °F 45.0 °F 34.0 °F 62% 30.22 in 10.0 mi SE 3.5 mph - N/A   Clear
2:35 AM 46.4 °F - 34.0 °F 62% 30.22 in 10.0 mi Calm Calm - N/A   Clear
2:55 AM 43.9 °F 42.3 °F 34.7 °F 70% 30.21 in 10.0 mi SE 3.5 mph - N/A   Clear
3:15 AM 43.9 °F - 34.7 °F 70% 30.21 in 10.0 mi Calm Calm - N/A   Clear
3:35 AM 42.6 °F 40.9 °F 34.9 °F 74% 30.21 in 10.0 mi ESE 3.5 mph - N/A   Clear
3:55 AM 44.4 °F 42.9 °F 35.6 °F 71% 30.21 in 10.0 mi SE 3.5 mph - N/A   Clear
4:15 AM 43.9 °F 41.3 °F 35.8 °F 73% 30.20 in 10.0 mi SE 4.6 mph - N/A   Clear
4:35 AM 45.5 °F 44.2 °F 36.5 °F 71% 30.20 in 10.0 mi SE 3.5 mph - N/A   Clear
4:55 AM 46.0 °F - 37.4 °F 72% 30.20 in 10.0 mi Calm Calm - N/A   Clear
5:15 AM 45.1 °F 43.7 °F 37.8 °F 75% 30.21 in 10.0 mi ESE 3.5 mph - N/A   Clear
5:35 AM 45.3 °F 44.0 °F 38.3 °F 76% 30.21 in 10.0 mi ESE 3.5 mph - N/A   Clear
5:55 AM 45.1 °F 42.8 °F 38.8 °F 79% 30.22 in 10.0 mi ESE 4.6 mph - N/A   Scattered Clouds
6:15 AM 47.3 °F - 41.0 °F 79% 30.22 in 10.0 mi SE 4.6 mph - N/A   Mostly Cloudy
6:35 AM 46.9 °F - 41.0 °F 80% 30.23 in 10.0 mi ESE 4.6 mph - N/A   Scattered Clouds
6:55 AM 46.8 °F - 41.4 °F 81% 30.23 in 10.0 mi SE 4.6 mph - N/A   Mostly Cloudy
7:15 AM 47.7 °F - 43.2 °F 84% 30.23 in 10.0 mi SE 4.6 mph - N/A   Mostly Cloudy
7:35 AM 49.3 °F - 45.0 °F 85% 30.23 in 7.0 mi SE 4.6 mph - N/A   Mostly Cloudy
7:55 AM 50.2 °F - 45.9 °F 85% 30.24 in 7.0 mi SE 4.6 mph - N/A   Scattered Clouds
8:15 AM 52.0 °F - 46.8 °F 82% 30.24 in 7.0 mi SE 5.8 mph - N/A   Clear
8:35 AM 53.2 °F - 47.3 °F 80% 30.24 in 7.0 mi SSE 4.6 mph - N/A   Clear
8:55 AM 55.4 °F - 47.8 °F 76% 30.25 in 10.0 mi SSE 3.5 mph - N/A   Mostly Cloudy
9:15 AM 55.8 °F - 48.4 °F 76% 30.25 in 10.0 mi SSE 5.8 mph - N/A   Overcast
9:35 AM 56.7 °F - 49.3 °F 76% 30.26 in 10.0 mi South 4.6 mph - N/A   Overcast
9:55 AM 58.1 °F - 50.2 °F 75% 30.26 in 10.0 mi South 3.5 mph - N/A   Overcast
10:15 AM 59.4 °F - 51.1 °F 74% 30.26 in 10.0 mi SE 4.6 mph - N/A   Overcast
10:35 AM 61.0 °F - 52.0 °F 72% 30.25 in 10.0 mi South 5.8 mph - N/A   Overcast
10:55 AM 61.5 °F - 52.5 °F 72% 30.24 in 10.0 mi SSE 5.8 mph - N/A   Overcast
11:15 AM 62.6 °F - 53.1 °F 71% 30.24 in 10.0 mi South 4.6 mph - N/A   Overcast
11:35 AM 63.9 °F - 53.4 °F 69% 30.22 in 10.0 mi South 3.5 mph - N/A   Overcast
11:55 AM 66.7 °F - 53.8 °F 63% 30.21 in 10.0 mi SSE 3.5 mph - N/A   Mostly Cloudy
12:15 PM 67.1 °F - 54.1 °F 63% 30.20 in 10.0 mi SSE 4.6 mph - N/A   Mostly Cloudy
12:35 PM 69.8 °F - 54.7 °F 59% 30.19 in 10.0 mi ESE 3.5 mph - N/A   Overcast
12:55 PM 69.8 °F - 54.7 °F 59% 30.18 in 10.0 mi South 3.5 mph - N/A   Mostly Cloudy
1:15 PM 69.8 °F - 55.0 °F 59% 30.17 in 10.0 mi SE 3.5 mph - N/A   Overcast
1:35 PM 69.8 °F - 55.2 °F 60% 30.17 in 10.0 mi SE 4.6 mph - N/A   Overcast
1:55 PM 70.3 °F - 55.6 °F 59% 30.16 in 10.0 mi SE 4.6 mph - N/A   Overcast
2:15 PM 70.5 °F - 55.8 °F 59% 30.16 in 10.0 mi South 3.5 mph - N/A   Overcast
2:35 PM 70.9 °F - 56.1 °F 59% 30.15 in 10.0 mi SE 5.8 mph - N/A   Overcast
2:55 PM 69.8 °F - 55.9 °F 61% 30.15 in 10.0 mi South 3.5 mph - N/A   Overcast
3:15 PM 69.4 °F - 56.3 °F 63% 30.15 in 10.0 mi SSE 3.5 mph - N/A   Overcast
3:35 PM 69.4 °F - 56.7 °F 64% 30.15 in 10.0 mi SSE 3.5 mph - N/A   Overcast
3:55 PM 69.1 °F - 56.5 °F 64% 30.15 in 10.0 mi South 3.5 mph - N/A   Overcast
4:15 PM 68.7 °F - 56.7 °F 65% 30.15 in 10.0 mi SSE 4.6 mph - N/A   Overcast
4:35 PM 68.0 °F - 56.8 °F 67% 30.14 in 10.0 mi SSE 3.5 mph - N/A   Overcast
4:55 PM 66.4 °F - 56.7 °F 71% 30.14 in 10.0 mi Calm Calm - N/A   Overcast
5:15 PM 66.2 °F - 56.8 °F 72% 30.14 in 10.0 mi East 3.5 mph - N/A   Overcast
5:35 PM 65.7 °F - 56.7 °F 73% 30.14 in 10.0 mi Calm Calm - N/A   Overcast
6:15 PM 64.6 °F - 56.7 °F 75% 30.15 in 10.0 mi Calm Calm - N/A   Overcast
6:35 PM 65.3 °F - 56.7 °F 74% 30.15 in 10.0 mi ESE 4.6 mph - N/A   Overcast
6:55 PM 65.3 °F - 56.7 °F 74% 30.15 in 10.0 mi ESE 4.6 mph - N/A   Overcast
7:15 PM 65.5 °F - 56.3 °F 72% 30.16 in 10.0 mi ESE 4.6 mph - N/A   Overcast
7:35 PM 65.5 °F - 55.6 °F 70% 30.16 in 10.0 mi SE 5.8 mph - N/A   Overcast
7:55 PM 65.3 °F - 55.4 °F 70% 30.17 in 10.0 mi SE 6.9 mph - N/A   Overcast
8:15 PM 64.8 °F - 55.0 °F 71% 30.16 in 10.0 mi ESE 6.9 mph - N/A   Overcast
8:35 PM 63.5 °F - 54.9 °F 73% 30.16 in 10.0 mi SE 5.8 mph - N/A   Mostly Cloudy
9:15 PM 62.8 °F - 54.5 °F 74% 30.15 in 10.0 mi SE 5.8 mph - N/A   Clear
9:35 PM 63.0 °F - 54.5 °F 74% 30.15 in 10.0 mi SE 6.9 mph - N/A   Scattered Clouds
10:15 PM 63.0 °F - 54.9 °F 75% 30.17 in 10.0 mi SE 4.6 mph - N/A   Overcast
10:35 PM 62.4 °F - 54.7 °F 76% 30.17 in 10.0 mi SE 4.6 mph - N/A   Overcast
11:15 PM 61.2 °F - 54.7 °F 79% 30.17 in 10.0 mi ESE 3.5 mph - N/A   Overcast
11:35 PM 61.0 °F - 54.9 °F 80% 30.17 in 10.0 mi Calm Calm - N/A   Mostly Cloudy
11:55 PM 61.7 °F - 55.0 °F 79% 30.16 in 10.0 mi SE 4.6 mph - N/A   Overcast